Voltar ao catálogo

KUIPER-00062

AtivoComunicaçõesLEO
NORAD 64522·PAYLOAD·🇺🇸 United States

Lançado Jun 23, 2025 de Cape Canaveral Space Force Station

Loading…

Próximas Passagens (próximas 24 horas)

TLE

AtualizadoSource: CelesTrak SupGP

Época: Sep 14, 2026, 23:04 UTC

1 64522C 25134Y   26257.96164352 -.00002594  00000+0 -33972-3 0  2577
2 64522  51.8940 113.5908 0000859 104.8234 122.0779 14.79921238    14

Acompanhe KUIPER-00062 em tempo real com AllMySat

Download on the App Store